time, beta470, beta532, beta650
yyyy/mm/dd HH:MM:SS.fff, counts, counts, counts
2023/06/09 22:32:02.149, 145, 214, 146
2023/06/09 22:32:03.268, 189, 228, 147
2023/06/09 22:32:04.404, 149, 197, 149
2023/06/09 22:32:05.540, 149, 213, 142
2023/06/09 22:32:06.660, 144, 199, 147
2023/06/09 22:32:07.796, 146, 198, 146
2023/06/09 22:32:08.931, 150, 302, 146
2023/06/09 22:32:10.051, 150, 205, 146
2023/06/09 22:32:11.188, 142, 211, 148
2023/06/09 22:32:12.324, 143, 203, 149
2023/06/09 22:32:13.443, 150, 217, 146
2023/06/09 22:32:14.580, 144, 208, 149
2023/06/09 22:32:15.716, 143, 215, 144
2023/06/09 22:32:16.836, 144, 218, 142
2023/06/09 22:32:17.971, 149, 203, 146
2023/06/09 22:32:19.108, 145, 203, 144
2023/06/09 22:32:20.227, 144, 208, 147
2023/06/09 22:32:21.364, 149, 204, 146
2023/06/09 22:32:22.499, 165, 211, 147
2023/06/09 22:32:23.618, 148, 247, 143
2023/06/09 22:32:24.755, 142, 202, 145
2023/06/09 22:32:25.875, 148, 208, 143
2023/06/09 22:32:27.011, 145, 210, 147
2023/06/09 22:32:28.147, 146, 219, 142
2023/06/09 22:32:29.267, 143, 213, 150
2023/06/09 22:32:30.403, 182, 204, 147
2023/06/09 22:32:31.539, 146, 212, 143
2023/06/09 22:32:32.659, 154, 208, 154
2023/06/09 22:32:33.795, 143, 226, 146
2023/06/09 22:32:34.930, 147, 203, 144
2023/06/09 22:32:36.050, 148, 217, 145
2023/06/09 22:32:37.186, 150, 207, 145
2023/06/09 22:32:38.322, 145, 201, 168
2023/06/09 22:32:39.442, 149, 493, 147
2023/06/09 22:32:40.578, 151, 266, 145
2023/06/09 22:32:41.714, 146, 194, 141
2023/06/09 22:32:42.834, 144, 202, 144
2023/06/09 22:32:43.970, 145, 225, 147
2023/06/09 22:32:45.106, 144, 218, 151
2023/06/09 22:32:46.226, 148, 210, 152
2023/06/09 22:32:47.362, 151, 229, 147
2023/06/09 22:32:48.498, 144, 202, 144
2023/06/09 22:32:49.617, 159, 222, 150
2023/06/09 22:32:50.754, 146, 217, 144
2023/06/09 22:32:51.873, 146, 207, 147
2023/06/09 22:32:53.009, 152, 213, 149
2023/06/09 22:32:54.145, 150, 218, 156
2023/06/09 22:32:55.265, 149, 217, 140
2023/06/09 22:32:56.401, 142, 222, 150
2023/06/09 22:32:57.537, 143, 212, 168
2023/06/09 22:32:58.657, 143, 209, 148
2023/06/09 22:32:59.793, 146, 197, 159
2023/06/09 22:33:00.929, 155, 210, 148
2023/06/09 22:33:02.049, 145, 213, 138
2023/06/09 22:33:03.185, 146, 213, 152
2023/06/09 22:33:04.321, 146, 221, 156
2023/06/09 22:33:05.441, 145, 201, 147
2023/06/09 22:33:06.576, 146, 198, 162
2023/06/09 22:33:07.712, 146, 223, 163
2023/06/09 22:33:08.832, 151, 221, 148
2023/06/09 22:33:09.968, 144, 206, 147
2023/06/09 22:33:11.104, 146, 206, 143
2023/06/09 22:33:12.224, 163, 228, 144
2023/06/09 22:33:13.360, 156, 209, 138
2023/06/09 22:33:14.496, 145, 213, 141
2023/06/09 22:33:15.616, 147, 215, 146
2023/06/09 22:33:16.752, 153, 201, 144
2023/06/09 22:33:17.888, 145, 214, 143
2023/06/09 22:33:19.008, 145, 218, 142
2023/06/09 22:33:20.144, 147, 215, 151
2023/06/09 22:33:21.280, 145, 218, 146
2023/06/09 22:33:22.400, 147, 213, 152
2023/06/09 22:33:23.536, 147, 199, 141
2023/06/09 22:33:24.655, 144, 209, 143
2023/06/09 22:33:25.791, 143, 217, 155
2023/06/09 22:33:26.927, 143, 202, 142
2023/06/09 22:33:28.047, 144, 211, 145
2023/06/09 22:33:29.183, 142, 209, 140
2023/06/09 22:33:30.319, 145, 212, 145
2023/06/09 22:33:31.439, 148, 203, 140
2023/06/09 22:33:32.575, 147, 209, 139
2023/06/09 22:33:33.711, 153, 210, 142
2023/06/09 22:33:34.831, 144, 213, 140
2023/06/09 22:33:35.967, 158, 211, 142
2023/06/09 22:33:37.103, 150, 223, 144
2023/06/09 22:33:38.223, 151, 204, 143
2023/06/09 22:33:39.359, 155, 213, 145
2023/06/09 22:33:40.494, 151, 217, 144
2023/06/09 22:33:41.614, 149, 210, 146
2023/06/09 22:33:42.750, 144, 211, 145
2023/06/09 22:33:43.870, 143, 209, 148
2023/06/09 22:33:45.006, 150, 203, 149
2023/06/09 22:33:46.142, 148, 206, 144
2023/06/09 22:33:47.262, 145, 208, 140
2023/06/09 22:33:48.398, 140, 212, 143
2023/06/09 22:33:49.534, 143, 203, 142
2023/06/09 22:33:50.654, 147, 213, 145
2023/06/09 22:33:51.790, 149, 211, 140
2023/06/09 22:33:52.926, 151, 202, 155
2023/06/09 22:33:54.046, 145, 211, 141
2023/06/09 22:33:55.181, 156, 217, 144
2023/06/09 22:33:56.318, 148, 207, 145
2023/06/09 22:33:57.437, 152, 216, 146
2023/06/09 22:33:58.573, 168, 204, 145
2023/06/09 22:33:59.709, 140, 215, 144
2023/06/09 22:34:00.829, 141, 209, 140
2023/06/09 22:34:01.965, 143, 205, 137
2023/06/09 22:34:03.101, 146, 207, 146
2023/06/09 22:34:04.221, 148, 210, 145
2023/06/09 22:34:05.357, 194, 229, 140
2023/06/09 22:34:06.493, 142, 215, 144
2023/06/09 22:34:07.613, 144, 209, 138
2023/06/09 22:34:08.749, 139, 213, 146
2023/06/09 22:34:09.885, 142, 201, 144
2023/06/09 22:34:11.005, 143, 212, 146
2023/06/09 22:34:12.140, 143, 204, 142
2023/06/09 22:34:13.276, 140, 207, 147
2023/06/09 22:34:14.396, 141, 214, 146
2023/06/09 22:34:15.532, 144, 199, 143
2023/06/09 22:34:16.652, 148, 196, 144
2023/06/09 22:34:17.788, 143, 201, 142
2023/06/09 22:34:18.924, 147, 208, 159
2023/06/09 22:34:20.044, 155, 212, 142
2023/06/09 22:34:21.180, 152, 204, 168
2023/06/09 22:34:22.316, 150, 204, 189
2023/06/09 22:34:23.436, 145, 199, 150
2023/06/09 22:34:24.572, 147, 210, 148
2023/06/09 22:34:25.708, 149, 204, 145
2023/06/09 22:34:26.827, 150, 208, 143
2023/06/09 22:34:27.964, 144, 210, 169
2023/06/09 22:34:29.099, 145, 212, 140
2023/06/09 22:34:30.219, 159, 207, 146
2023/06/09 22:34:31.355, 140, 189, 141
2023/06/09 22:34:32.491, 140, 200, 136
2023/06/09 22:34:33.611, 146, 207, 144
2023/06/09 22:34:34.747, 148, 200, 143
2023/06/09 22:34:35.867, 148, 206, 146
2023/06/09 22:34:37.003, 149, 207, 143
2023/06/09 22:34:38.138, 143, 224, 159
2023/06/09 22:34:39.259, 142, 203, 144
2023/06/09 22:34:40.395, 145, 205, 136
2023/06/09 22:34:41.530, 142, 198, 169
2023/06/09 22:34:42.650, 144, 198, 138
2023/06/09 22:34:43.787, 144, 201, 137
2023/06/09 22:34:44.922, 146, 204, 154
2023/06/09 22:34:46.043, 142, 206, 139
2023/06/09 22:34:47.178, 143, 210, 144
2023/06/09 22:34:48.314, 144, 208, 145
2023/06/09 22:34:49.434, 152, 207, 147
2023/06/09 22:34:50.570, 143, 211, 144
2023/06/09 22:34:51.706, 146, 199, 141
2023/06/09 22:34:52.826, 152, 204, 149
2023/06/09 22:34:53.962, 144, 200, 146
2023/06/09 22:34:55.098, 144, 201, 147
2023/06/09 22:34:56.218, 142, 196, 147
2023/06/09 22:34:57.354, 150, 221, 146
2023/06/09 22:34:58.490, 144, 204, 143
2023/06/09 22:34:59.610, 146, 207, 150
2023/06/09 22:35:00.746, 148, 210, 142
2023/06/09 22:35:01.882, 140, 193, 149
2023/06/09 22:35:03.002, 142, 198, 147
2023/06/09 22:35:04.137, 146, 207, 142
2023/06/09 22:35:05.273, 144, 192, 140
2023/06/09 22:35:06.393, 148, 197, 143
2023/06/09 22:35:07.529, 141, 201, 143
2023/06/09 22:35:08.665, 144, 201, 146
2023/06/09 22:35:09.785, 143, 204, 142
2023/06/09 22:35:10.921, 149, 208, 140
2023/06/09 22:35:12.041, 142, 203, 145
2023/06/09 22:35:13.177, 143, 203, 145
2023/06/09 22:35:14.313, 146, 202, 137
2023/06/09 22:35:15.433, 142, 200, 142
2023/06/09 22:35:16.569, 144, 209, 143
2023/06/09 22:35:17.705, 141, 201, 142
2023/06/09 22:35:18.825, 142, 198, 142
2023/06/09 22:35:19.960, 138, 205, 139
2023/06/09 22:35:21.096, 146, 215, 138
2023/06/09 22:35:22.216, 148, 206, 138
2023/06/09 22:35:23.352, 140, 216, 141
2023/06/09 22:35:24.488, 143, 195, 136
2023/06/09 22:35:25.608, 148, 206, 138
2023/06/09 22:35:26.744, 141, 203, 135
2023/06/09 22:35:27.880, 141, 204, 134
2023/06/09 22:35:29.000, 141, 218, 149
2023/06/09 22:35:30.136, 147, 211, 142
2023/06/09 22:35:31.256, 148, 210, 139
2023/06/09 22:35:32.392, 141, 204, 135
2023/06/09 22:35:33.527, 141, 212, 142
2023/06/09 22:35:34.647, 132, 214, 138
2023/06/09 22:35:35.783, 140, 201, 144
2023/06/09 22:35:36.919, 143, 199, 139
2023/06/09 22:35:38.039, 144, 208, 147
2023/06/09 22:35:39.175, 143, 205, 139
2023/06/09 22:35:40.311, 155, 230, 138
2023/06/09 22:35:41.431, 142, 201, 151
2023/06/09 22:35:42.567, 144, 204, 140
2023/06/09 22:35:43.703, 147, 244, 145
2023/06/09 22:35:44.823, 141, 211, 145
2023/06/09 22:35:45.959, 146, 200, 137
2023/06/09 22:35:47.095, 140, 197, 140
2023/06/09 22:35:48.215, 142, 201, 139
2023/06/09 22:35:49.350, 143, 202, 141
2023/06/09 22:35:50.486, 144, 209, 144
2023/06/09 22:35:51.606, 146, 200, 140
2023/06/09 22:35:52.742, 142, 207, 138
2023/06/09 22:35:53.878, 147, 199, 138
2023/06/09 22:35:54.998, 146, 207, 139
2023/06/09 22:35:56.134, 140, 204, 136
2023/06/09 22:35:57.270, 144, 202, 143
2023/06/09 22:35:58.390, 144, 220, 137
2023/06/09 22:35:59.526, 142, 200, 140
2023/06/09 22:36:00.662, 139, 218, 141
2023/06/09 22:36:01.782, 140, 202, 142
2023/06/09 22:36:02.918, 144, 206, 147
2023/06/09 22:36:04.038, 143, 210, 147
2023/06/09 22:36:05.174, 157, 205, 142
2023/06/09 22:36:06.310, 145, 231, 141
2023/06/09 22:36:07.429, 141, 211, 147
2023/06/09 22:36:08.565, 140, 194, 141
2023/06/09 22:36:09.701, 142, 214, 132
2023/06/09 22:36:10.821, 156, 209, 142
2023/06/09 22:36:11.957, 148, 202, 138
2023/06/09 22:36:13.093, 141, 198, 139
2023/06/09 22:36:14.213, 139, 194, 142
2023/06/09 22:36:15.349, 141, 195, 139
2023/06/09 22:36:16.485, 142, 197, 140
2023/06/09 22:36:17.605, 140, 193, 151
2023/06/09 22:36:18.741, 150, 207, 139
2023/06/09 22:36:19.877, 135, 210, 136
2023/06/09 22:36:20.997, 143, 199, 146
2023/06/09 22:36:22.132, 145, 198, 135
2023/06/09 22:36:23.269, 140, 198, 136
2023/06/09 22:36:24.388, 140, 206, 138
2023/06/09 22:36:25.524, 140, 198, 133
2023/06/09 22:36:26.660, 143, 205, 140
2023/06/09 22:36:27.780, 139, 198, 138
2023/06/09 22:36:28.916, 147, 190, 140
2023/06/09 22:36:30.036, 134, 203, 187
2023/06/09 22:36:31.172, 137, 199, 141
2023/06/09 22:36:32.308, 139, 199, 142
2023/06/09 22:36:33.427, 138, 199, 145
2023/06/09 22:36:34.564, 140, 208, 140
2023/06/09 22:36:35.700, 137, 202, 142
2023/06/09 22:36:36.820, 140, 191, 140
2023/06/09 22:36:37.956, 142, 202, 142
2023/06/09 22:36:39.092, 148, 199, 144
2023/06/09 22:36:40.211, 144, 200, 148
2023/06/09 22:36:41.347, 143, 201, 145
2023/06/09 22:36:42.483, 145, 203, 142
2023/06/09 22:36:43.603, 146, 198, 139
2023/06/09 22:36:44.739, 139, 212, 140
2023/06/09 22:36:45.875, 140, 193, 139
2023/06/09 22:36:46.995, 141, 209, 137
2023/06/09 22:36:48.131, 142, 190, 141
2023/06/09 22:36:49.267, 147, 217, 135
2023/06/09 22:36:50.387, 148, 202, 144
2023/06/09 22:36:51.523, 140, 214, 134
2023/06/09 22:36:52.643, 143, 199, 137
2023/06/09 22:36:53.779, 139, 206, 133
2023/06/09 22:36:54.915, 140, 195, 140
2023/06/09 22:36:56.035, 144, 208, 136
2023/06/09 22:36:57.170, 141, 197, 134
2023/06/09 22:36:58.306, 138, 199, 134
2023/06/09 22:36:59.426, 139, 199, 142
2023/06/09 22:37:00.562, 143, 235, 138
2023/06/09 22:37:01.698, 136, 211, 147
2023/06/09 22:37:02.818, 134, 190, 134
2023/06/09 22:37:03.954, 136, 194, 136
2023/06/09 22:37:05.090, 150, 189, 136
2023/06/09 22:37:06.210, 138, 180, 139
2023/06/09 22:37:07.346, 144, 185, 136
2023/06/09 22:37:08.482, 138, 194, 146
2023/06/09 22:37:09.602, 141, 193, 135
2023/06/09 22:37:10.738, 140, 192, 137
2023/06/09 22:37:11.873, 140, 203, 134
2023/06/09 22:37:12.994, 142, 190, 134
2023/06/09 22:37:14.129, 138, 200, 138
2023/06/09 22:37:15.266, 143, 204, 149
2023/06/09 22:37:16.385, 148, 200, 136
2023/06/09 22:37:17.521, 141, 200, 144
2023/06/09 22:37:18.657, 143, 196, 136
2023/06/09 22:37:19.777, 136, 196, 143
2023/06/09 22:37:20.913, 141, 192, 138
2023/06/09 22:37:22.049, 136, 194, 134
2023/06/09 22:37:23.169, 140, 196, 136
2023/06/09 22:37:24.305, 135, 190, 139
2023/06/09 22:37:25.425, 140, 204, 141
2023/06/09 22:37:26.561, 138, 194, 134
2023/06/09 22:37:27.697, 138, 200, 133
2023/06/09 22:37:28.816, 137, 194, 135
2023/06/09 22:37:29.952, 138, 202, 137
2023/06/09 22:37:31.088, 141, 198, 143
2023/06/09 22:37:32.208, 136, 196, 159
2023/06/09 22:37:33.344, 135, 190, 137
2023/06/09 22:37:34.480, 144, 200, 138
2023/06/09 22:37:35.600, 139, 201, 140
2023/06/09 22:37:36.736, 141, 194, 135
2023/06/09 22:37:37.872, 139, 191, 136
2023/06/09 22:37:38.992, 141, 198, 137
2023/06/09 22:37:40.127, 139, 188, 135
2023/06/09 22:37:41.248, 144, 219, 145
2023/06/09 22:37:42.384, 144, 198, 140
2023/06/09 22:37:43.520, 140, 202, 140
2023/06/09 22:37:44.639, 135, 193, 139
2023/06/09 22:37:45.775, 132, 193, 136
2023/06/09 22:37:46.911, 137, 188, 131
2023/06/09 22:37:48.031, 139, 198, 140
2023/06/09 22:37:49.167, 143, 195, 137
2023/06/09 22:37:50.303, 136, 195, 133
2023/06/09 22:37:51.423, 136, 187, 130
2023/06/09 22:37:52.559, 142, 184, 135
2023/06/09 22:37:53.695, 138, 193, 137
2023/06/09 22:37:54.815, 140, 199, 140
2023/06/09 22:37:55.951, 137, 189, 140
2023/06/09 22:37:57.087, 132, 183, 136
2023/06/09 22:37:58.207, 132, 189, 142
2023/06/09 22:37:59.343, 132, 187, 146
2023/06/09 22:38:00.478, 135, 197, 138
2023/06/09 22:38:01.598, 134, 196, 138
2023/06/09 22:38:02.734, 139, 209, 133
2023/06/09 22:38:03.870, 137, 183, 137
2023/06/09 22:38:04.990, 138, 202, 137
2023/06/09 22:38:06.126, 144, 186, 138
2023/06/09 22:38:07.262, 136, 180, 136
2023/06/09 22:38:08.382, 136, 182, 128
2023/06/09 22:38:09.518, 138, 186, 136
2023/06/09 22:38:10.638, 136, 186, 134
2023/06/09 22:38:11.774, 134, 185, 127
2023/06/09 22:38:12.909, 132, 195, 133
2023/06/09 22:38:14.030, 134, 184, 132
2023/06/09 22:38:15.166, 147, 200, 131
2023/06/09 22:38:16.302, 142, 189, 136
2023/06/09 22:38:17.421, 133, 186, 138
2023/06/09 22:38:18.557, 137, 219, 136
2023/06/09 22:38:19.693, 136, 207, 137
2023/06/09 22:38:20.814, 136, 226, 138
2023/06/09 22:38:21.949, 139, 208, 136
2023/06/09 22:38:23.085, 148, 193, 130
2023/06/09 22:38:24.205, 137, 197, 132
2023/06/09 22:38:25.341, 134, 188, 131
2023/06/09 22:38:26.477, 134, 194, 133
2023/06/09 22:38:27.597, 141, 185, 139
2023/06/09 22:38:28.733, 131, 185, 136
2023/06/09 22:38:29.869, 136, 191, 137
2023/06/09 22:38:30.989, 134, 197, 138
2023/06/09 22:38:32.125, 134, 198, 135
2023/06/09 22:38:33.245, 137, 189, 137
2023/06/09 22:38:34.380, 140, 187, 135
2023/06/09 22:38:35.516, 138, 184, 134
2023/06/09 22:38:36.636, 133, 192, 134
2023/06/09 22:38:37.772, 139, 195, 140
2023/06/09 22:38:38.908, 136, 187, 134
2023/06/09 22:38:40.028, 239, 245, 130
2023/06/09 22:38:41.164, 140, 192, 139
2023/06/09 22:38:42.300, 134, 181, 138
2023/06/09 22:38:43.420, 152, 192, 136
2023/06/09 22:38:44.556, 143, 209, 147
2023/06/09 22:38:45.692, 137, 200, 141
2023/06/09 22:38:46.812, 141, 194, 133
2023/06/09 22:38:47.947, 139, 184, 131
2023/06/09 22:38:49.084, 137, 189, 138
2023/06/09 22:38:50.203, 135, 187, 138
2023/06/09 22:38:51.339, 153, 194, 135
2023/06/09 22:38:52.475, 138, 191, 129
2023/06/09 22:38:53.595, 136, 183, 128
2023/06/09 22:38:54.731, 131, 195, 134
2023/06/09 22:38:55.867, 132, 189, 136
2023/06/09 22:38:56.987, 134, 180, 132
2023/06/09 22:38:58.122, 131, 188, 140
2023/06/09 22:38:59.243, 133, 189, 134
2023/06/09 22:39:00.379, 132, 189, 127
2023/06/09 22:39:01.515, 132, 189, 131
2023/06/09 22:39:02.635, 258, 183, 127
2023/06/09 22:39:03.771, 136, 183, 130
2023/06/09 22:39:04.907, 133, 214, 134
2023/06/09 22:39:06.027, 134, 186, 132
2023/06/09 22:39:07.163, 134, 184, 135
2023/06/09 22:39:08.298, 137, 182, 125
2023/06/09 22:39:09.418, 132, 184, 132
2023/06/09 22:39:10.554, 135, 182, 131
2023/06/09 22:39:11.690, 132, 184, 133
2023/06/09 22:39:12.810, 135, 394, 129
2023/06/09 22:39:13.946, 134, 194, 132
2023/06/09 22:39:15.082, 133, 181, 129
2023/06/09 22:39:16.202, 132, 186, 128
2023/06/09 22:39:17.338, 130, 187, 128
2023/06/09 22:39:18.474, 131, 191, 131
2023/06/09 22:39:19.593, 138, 238, 145
2023/06/09 22:39:20.730, 137, 180, 131
2023/06/09 22:39:21.866, 132, 203, 136
2023/06/09 22:39:22.985, 136, 253, 132
2023/06/09 22:39:24.121, 153, 187, 129
2023/06/09 22:39:25.257, 133, 179, 132
2023/06/09 22:39:26.377, 133, 185, 129
2023/06/09 22:39:27.513, 135, 187, 131
2023/06/09 22:39:28.633, 164, 195, 142
2023/06/09 22:39:29.769, 130, 179, 128
2023/06/09 22:39:30.904, 138, 185, 126
2023/06/09 22:39:32.025, 132, 186, 132
2023/06/09 22:39:33.161, 137, 190, 133
2023/06/09 22:39:34.297, 128, 189, 132
2023/06/09 22:39:35.416, 134, 184, 134
2023/06/09 22:39:36.553, 131, 184, 128
2023/06/09 22:39:37.689, 133, 186, 130
2023/06/09 22:39:38.809, 141, 183, 132
2023/06/09 22:39:39.944, 134, 186, 128
2023/06/09 22:39:41.080, 145, 182, 131
2023/06/09 22:39:42.200, 136, 185, 134
2023/06/09 22:39:43.336, 134, 188, 132
2023/06/09 22:39:44.456, 134, 190, 132
2023/06/09 22:39:45.592, 139, 192, 143
2023/06/09 22:39:46.728, 133, 184, 132
2023/06/09 22:39:47.848, 135, 179, 124
2023/06/09 22:39:48.984, 137, 183, 130
2023/06/09 22:39:50.120, 133, 188, 135
2023/06/09 22:39:51.240, 140, 184, 134
2023/06/09 22:39:52.376, 130, 185, 130
2023/06/09 22:39:53.512, 132, 187, 128
2023/06/09 22:39:54.631, 132, 183, 131
2023/06/09 22:39:55.767, 129, 214, 140
2023/06/09 22:39:56.903, 132, 179, 123
2023/06/09 22:39:58.023, 133, 182, 127
2023/06/09 22:39:59.159, 134, 172, 132
2023/06/09 22:40:00.295, 131, 181, 148
2023/06/09 22:40:01.415, 130, 176, 148
2023/06/09 22:40:02.551, 132, 189, 160
2023/06/09 22:40:03.687, 135, 191, 143
2023/06/09 22:40:04.807, 133, 183, 127
2023/06/09 22:40:05.943, 137, 188, 130
2023/06/09 22:40:07.079, 131, 189, 129
2023/06/09 22:40:08.199, 128, 190, 129
2023/06/09 22:40:09.335, 132, 183, 131
2023/06/09 22:40:10.471, 132, 178, 130
2023/06/09 22:40:11.591, 136, 189, 150
2023/06/09 22:40:12.726, 135, 182, 129
2023/06/09 22:40:13.862, 134, 181, 125
2023/06/09 22:40:14.982, 144, 178, 129
2023/06/09 22:40:16.118, 133, 183, 137
2023/06/09 22:40:17.238, 136, 186, 132
2023/06/09 22:40:18.374, 132, 182, 131
2023/06/09 22:40:19.510, 133, 189, 129
2023/06/09 22:40:20.630, 133, 176, 132
2023/06/09 22:40:21.765, 134, 173, 128
2023/06/09 22:40:22.902, 133, 186, 131
2023/06/09 22:40:24.022, 134, 180, 131
2023/06/09 22:40:25.157, 148, 180, 136
2023/06/09 22:40:26.294, 131, 192, 133
2023/06/09 22:40:27.414, 131, 177, 129
2023/06/09 22:40:28.550, 135, 175, 129
2023/06/09 22:40:29.685, 131, 183, 130
2023/06/09 22:40:30.805, 140, 188, 130
2023/06/09 22:40:31.941, 135, 197, 136
2023/06/09 22:40:33.061, 140, 177, 126
2023/06/09 22:40:34.197, 134, 178, 128
2023/06/09 22:40:35.333, 132, 186, 126
2023/06/09 22:40:36.453, 135, 206, 126
2023/06/09 22:40:37.589, 130, 184, 134
2023/06/09 22:40:38.725, 135, 186, 131
2023/06/09 22:40:39.845, 140, 179, 131
2023/06/09 22:40:40.980, 131, 188, 134
2023/06/09 22:40:42.116, 134, 183, 129
2023/06/09 22:40:43.237, 134, 184, 131
2023/06/09 22:40:44.372, 133, 184, 139
2023/06/09 22:40:45.508, 133, 178, 130
2023/06/09 22:40:46.628, 140, 179, 131
2023/06/09 22:40:47.764, 134, 187, 129
2023/06/09 22:40:48.900, 128, 178, 151
2023/06/09 22:40:50.020, 131, 177, 130
2023/06/09 22:40:51.156, 138, 179, 132
2023/06/09 22:40:52.292, 132, 420, 129
2023/06/09 22:40:53.412, 135, 185, 136
2023/06/09 22:40:54.548, 134, 199, 133
2023/06/09 22:40:55.684, 132, 190, 133
2023/06/09 22:40:56.804, 139, 182, 131
2023/06/09 22:40:57.940, 131, 184, 131
2023/06/09 22:40:59.076, 132, 179, 128
2023/06/09 22:41:00.195, 132, 193, 129
2023/06/09 22:41:01.331, 132, 184, 128
2023/06/09 22:41:02.451, 130, 186, 130
2023/06/09 22:41:03.587, 128, 185, 127
2023/06/09 22:41:04.723, 129, 187, 131
2023/06/09 22:41:05.843, 134, 182, 139
2023/06/09 22:41:06.979, 132, 183, 130
2023/06/09 22:41:08.115, 139, 184, 124
2023/06/09 22:41:09.235, 132, 185, 136
2023/06/09 22:41:10.370, 136, 176, 128
2023/06/09 22:41:11.507, 134, 219, 133
2023/06/09 22:41:12.627, 133, 180, 128
2023/06/09 22:41:13.763, 132, 180, 125
2023/06/09 22:41:14.899, 136, 183, 130
2023/06/09 22:41:16.019, 133, 180, 127
2023/06/09 22:41:17.155, 131, 186, 123
2023/06/09 22:41:18.290, 131, 173, 122
2023/06/09 22:41:19.410, 131, 185, 126
2023/06/09 22:41:20.546, 133, 180, 127
2023/06/09 22:41:21.682, 132, 187, 132
2023/06/09 22:41:22.802, 135, 180, 128
2023/06/09 22:41:23.938, 132, 184, 126
2023/06/09 22:41:25.074, 133, 187, 123
2023/06/09 22:41:26.194, 132, 171, 133
2023/06/09 22:41:27.330, 129, 175, 132
2023/06/09 22:41:28.450, 132, 181, 130
2023/06/09 22:41:29.586, 135, 186, 130
2023/06/09 22:41:30.722, 132, 190, 130
2023/06/09 22:41:31.841, 131, 175, 128
2023/06/09 22:41:32.978, 135, 186, 131
2023/06/09 22:41:34.113, 129, 179, 129
2023/06/09 22:41:35.233, 134, 175, 132
2023/06/09 22:41:36.369, 129, 186, 127
2023/06/09 22:41:37.505, 131, 171, 125
2023/06/09 22:41:38.625, 134, 181, 122
2023/06/09 22:41:39.761, 132, 285, 128
2023/06/09 22:41:40.897, 131, 191, 125
2023/06/09 22:41:42.017, 146, 180, 127
2023/06/09 22:41:43.153, 135, 180, 127
2023/06/09 22:41:44.289, 144, 176, 127
2023/06/09 22:41:45.409, 127, 181, 129
2023/06/09 22:41:46.545, 129, 178, 127
2023/06/09 22:41:47.665, 131, 178, 127
2023/06/09 22:41:48.800, 131, 184, 129
2023/06/09 22:41:49.936, 132, 182, 127
2023/06/09 22:41:51.056, 133, 177, 131
2023/06/09 22:41:52.192, 129, 181, 129
2023/06/09 22:41:53.328, 130, 177, 132
2023/06/09 22:41:54.448, 131, 177, 127
2023/06/09 22:41:55.584, 142, 190, 125
2023/06/09 22:41:56.720, 130, 176, 134
2023/06/09 22:41:57.840, 132, 180, 127
2023/06/09 22:41:58.976, 137, 182, 126
2023/06/09 22:42:00.112, 130, 176, 128
2023/06/09 22:42:01.232, 130, 176, 125
2023/06/09 22:42:02.368, 129, 176, 124
2023/06/09 22:42:03.503, 130, 172, 128
2023/06/09 22:42:04.623, 133, 181, 132
2023/06/09 22:42:05.760, 131, 229, 126
2023/06/09 22:42:06.895, 131, 179, 132
2023/06/09 22:42:08.015, 132, 180, 136
2023/06/09 22:42:09.151, 129, 252, 130
2023/06/09 22:42:10.287, 132, 183, 127
2023/06/09 22:42:11.407, 135, 191, 125
2023/06/09 22:42:12.543, 132, 183, 128
2023/06/09 22:42:13.679, 134, 178, 126
2023/06/09 22:42:14.799, 127, 178, 125
2023/06/09 22:42:15.935, 135, 293, 130
2023/06/09 22:42:17.071, 127, 183, 120
2023/06/09 22:42:18.191, 130, 177, 130
2023/06/09 22:42:19.327, 127, 182, 127
2023/06/09 22:42:20.447, 129, 181, 124
2023/06/09 22:42:21.582, 128, 178, 133
2023/06/09 22:42:22.718, 131, 177, 139
2023/06/09 22:42:23.838, 129, 169, 126
2023/06/09 22:42:24.974, 128, 178, 137
2023/06/09 22:42:26.110, 127, 171, 128
2023/06/09 22:42:27.230, 131, 180, 131
2023/06/09 22:42:28.366, 130, 173, 131
2023/06/09 22:42:29.502, 131, 180, 128
2023/06/09 22:42:30.622, 130, 178, 164
2023/06/09 22:42:31.758, 132, 180, 129
2023/06/09 22:42:32.894, 127, 178, 132
2023/06/09 22:42:34.014, 129, 176, 127
2023/06/09 22:42:35.150, 132, 176, 133
2023/06/09 22:42:36.269, 129, 179, 127
2023/06/09 22:42:37.406, 134, 184, 127
2023/06/09 22:42:38.542, 128, 178, 131
2023/06/09 22:42:39.661, 134, 175, 126
2023/06/09 22:42:40.797, 133, 182, 128
2023/06/09 22:42:41.933, 128, 185, 128
2023/06/09 22:42:43.053, 132, 185, 129
2023/06/09 22:42:44.189, 130, 174, 125
2023/06/09 22:42:45.325, 129, 174, 131
2023/06/09 22:42:46.445, 127, 179, 128
2023/06/09 22:42:47.581, 130, 190, 127
2023/06/09 22:42:48.717, 132, 176, 131
2023/06/09 22:42:49.837, 132, 183, 125
2023/06/09 22:42:50.973, 129, 175, 164
2023/06/09 22:42:52.109, 129, 173, 127
2023/06/09 22:42:53.229, 129, 178, 127
2023/06/09 22:42:54.365, 127, 184, 132
2023/06/09 22:42:55.500, 128, 179, 132
2023/06/09 22:42:56.620, 132, 173, 124
2023/06/09 22:42:57.756, 131, 183, 122
2023/06/09 22:42:58.892, 126, 176, 127
2023/06/09 22:43:00.011, 130, 184, 132
2023/06/09 22:43:01.148, 124, 175, 130
2023/06/09 22:43:02.284, 126, 178, 126
2023/06/09 22:43:03.404, 129, 173, 126
2023/06/09 22:43:04.540, 129, 173, 121
2023/06/09 22:43:05.660, 125, 185, 123
2023/06/09 22:43:06.796, 134, 180, 125
2023/06/09 22:43:07.932, 131, 176, 126
2023/06/09 22:43:09.052, 133, 176, 127
2023/06/09 22:43:10.188, 130, 173, 123
2023/06/09 22:43:11.324, 127, 181, 123
2023/06/09 22:43:12.443, 133, 175, 131
2023/06/09 22:43:13.579, 125, 177, 127
2023/06/09 22:43:14.715, 132, 176, 128
2023/06/09 22:43:15.835, 129, 172, 127